Time,TemperatureF,DewpointF,PressureIn,WindDirection,WindDirectionDegrees,WindSpeedMPH,WindSpeedGustMPH,Humidity,HourlyPrecipIn,Conditions,Clouds,dailyrainin,SoftwareType,DateUTC
2013-08-11 00:00:00,58.9,55.0,30.05,WNW,292,4.0,5.0,87,0.00,,,0.00,Wunderground v.1.15,2013-08-11 07:00:00,
2013-08-11 00:10:00,58.7,54.8,30.05,NW,315,3.0,3.0,87,0.00,,,0.00,Wunderground v.1.15,2013-08-11 07:10:00,
2013-08-11 00:15:00,58.7,54.8,30.05,WNW,299,3.0,5.0,87,0.00,,,0.00,Wunderground v.1.15,2013-08-11 07:15:00,
2013-08-11 00:20:00,58.6,54.7,30.06,NW,307,4.0,4.0,87,0.00,,,0.00,Wunderground v.1.15,2013-08-11 07:20:00,
2013-08-11 00:25:00,58.5,54.6,30.06,WNW,290,4.0,5.0,87,0.00,,,0.00,Wunderground v.1.15,2013-08-11 07:25:00,
2013-08-11 00:30:00,58.6,54.7,30.06,WNW,285,5.0,5.0,87,0.00,,,0.00,Wunderground v.1.15,2013-08-11 07:30:00,
2013-08-11 00:35:00,58.6,54.4,30.06,NW,317,5.0,5.0,86,0.00,,,0.00,Wunderground v.1.15,2013-08-11 07:35:00,
2013-08-11 00:40:00,58.7,54.8,30.06,WNW,301,5.0,10.0,87,0.00,,,0.00,Wunderground v.1.15,2013-08-11 07:40:00,
2013-08-11 00:45:00,59.0,54.8,30.06,WNW,288,6.0,10.0,86,0.00,,,0.00,Wunderground v.1.15,2013-08-11 07:45:00,
2013-08-11 00:50:00,59.1,54.9,30.06,WSW,257,7.0,10.0,86,0.00,,,0.00,Wunderground v.1.15,2013-08-11 07:50:00,
2013-08-11 00:55:00,59.3,55.1,30.06,West,275,7.0,10.0,86,0.00,,,0.00,Wunderground v.1.15,2013-08-11 07:55:00,
2013-08-11 01:00:00,59.4,55.2,30.06,WSW,252,6.0,6.0,86,0.00,,,0.00,Wunderground v.1.15,2013-08-11 08:00:00,
2013-08-11 01:05:00,59.1,54.6,30.06,West,271,6.0,6.0,85,0.00,,,0.00,Wunderground v.1.15,2013-08-11 08:05:00,
2013-08-11 01:10:00,59.1,54.6,30.07,West,263,5.0,6.0,85,0.00,,,0.00,Wunderground v.1.15,2013-08-11 08:10:00,
2013-08-11 01:15:00,59.1,54.6,30.07,NW,306,5.0,6.0,85,0.00,,,0.00,Wunderground v.1.15,2013-08-11 08:15:00,
2013-08-11 01:20:00,59.0,54.5,30.07,WNW,289,5.0,5.0,85,0.00,,,0.00,Wunderground v.1.15,2013-08-11 08:20:00,
2013-08-11 01:25:00,59.1,54.9,30.07,West,278,5.0,8.0,86,0.00,,,0.00,Wunderground v.1.15,2013-08-11 08:25:00,
2013-08-11 01:30:00,59.5,55.3,30.07,West,277,6.0,7.0,86,0.00,,,0.00,Wunderground v.1.15,2013-08-11 08:30:00,
2013-08-11 01:35:00,59.4,54.9,30.06,West,268,7.0,9.0,85,0.00,,,0.00,Wunderground v.1.15,2013-08-11 08:35:00,
2013-08-11 01:40:00,59.3,55.1,30.06,West,273,7.0,7.0,86,0.00,,,0.00,Wunderground v.1.15,2013-08-11 08:40:00,
2013-08-11 01:50:00,59.1,54.9,30.06,NW,311,5.0,5.0,86,0.00,,,0.00,Wunderground v.1.15,2013-08-11 08:50:00,
2013-08-11 01:55:00,58.9,54.7,30.06,West,279,5.0,5.0,86,0.00,,,0.00,Wunderground v.1.15,2013-08-11 08:55:00,
2013-08-11 02:00:00,59.0,54.8,30.05,WSW,257,5.0,5.0,86,0.00,,,0.00,Wunderground v.1.15,2013-08-11 09:00:00,
2013-08-11 02:10:00,58.8,54.3,30.06,West,279,5.0,5.0,85,0.00,,,0.00,Wunderground v.1.15,2013-08-11 09:10:00,
2013-08-11 02:20:00,58.4,54.2,30.06,WNW,283,3.0,3.0,86,0.00,,,0.00,Wunderground v.1.15,2013-08-11 09:20:00,
2013-08-11 02:25:00,58.3,54.1,30.06,WNW,292,3.0,3.0,86,0.00,,,0.00,Wunderground v.1.15,2013-08-11 09:25:00,
2013-08-11 02:35:00,58.0,53.8,30.06,NW,317,2.0,2.0,86,0.00,,,0.00,Wunderground v.1.15,2013-08-11 09:35:00,
2013-08-11 02:40:00,57.9,53.7,30.06,NW,323,2.0,2.0,86,0.00,,,0.00,Wunderground v.1.15,2013-08-11 09:40:00,
2013-08-11 02:45:00,57.7,53.9,30.06,NW,317,2.0,2.0,87,0.00,,,0.00,Wunderground v.1.15,2013-08-11 09:45:00,
2013-08-11 02:50:00,57.7,53.9,30.07,West,275,2.0,2.0,87,0.00,,,0.00,Wunderground v.1.15,2013-08-11 09:50:00,
2013-08-11 02:55:00,57.9,54.1,30.07,WNW,287,3.0,5.0,87,0.00,,,0.00,Wunderground v.1.15,2013-08-11 09:55:00,
2013-08-11 03:00:00,58.0,54.2,30.07,WNW,296,3.0,3.0,87,0.00,,,0.00,Wunderground v.1.15,2013-08-11 10:00:00,
2013-08-11 03:05:00,58.0,54.2,30.07,NW,321,3.0,3.0,87,0.00,,,0.00,Wunderground v.1.15,2013-08-11 10:05:00,
2013-08-11 03:10:00,58.0,54.2,30.07,NW,317,3.0,3.0,87,0.00,,,0.00,Wunderground v.1.15,2013-08-11 10:10:00,
2013-08-11 03:15:00,58.0,54.5,30.07,NW,306,3.0,3.0,88,0.00,,,0.00,Wunderground v.1.15,2013-08-11 10:15:00,
2013-08-11 03:25:00,58.1,54.6,30.07,NW,319,4.0,6.0,88,0.00,,,0.00,Wunderground v.1.15,2013-08-11 10:25:00,
2013-08-11 03:30:00,58.0,54.5,30.07,NW,323,4.0,4.0,88,0.00,,,0.00,Wunderground v.1.15,2013-08-11 10:30:00,
2013-08-11 03:40:00,57.8,54.3,30.07,NW,323,3.0,6.0,88,0.00,,,0.00,Wunderground v.1.15,2013-08-11 10:40:00,
2013-08-11 03:45:00,57.7,54.2,30.07,WNW,294,3.0,6.0,88,0.00,,,0.00,Wunderground v.1.15,2013-08-11 10:45:00,
2013-08-11 03:50:00,57.6,54.1,30.07,WNW,300,4.0,4.0,88,0.00,,,0.00,Wunderground v.1.15,2013-08-11 10:50:00,
2013-08-11 03:55:00,57.6,54.1,30.07,NW,315,3.0,4.0,88,0.00,,,0.00,Wunderground v.1.15,2013-08-11 10:55:00,
2013-08-11 04:00:00,57.6,54.1,30.07,NW,311,3.0,3.0,88,0.00,,,0.00,Wunderground v.1.15,2013-08-11 11:00:00,
2013-08-11 04:05:00,57.7,54.2,30.06,NW,307,3.0,3.0,88,0.00,,,0.00,Wunderground v.1.15,2013-08-11 11:05:00,
2013-08-11 04:10:00,57.6,53.8,30.06,West,270,3.0,6.0,87,0.00,,,0.00,Wunderground v.1.15,2013-08-11 11:10:00,
2013-08-11 04:15:00,57.9,54.1,30.06,NW,306,4.0,6.0,87,0.00,,,0.00,Wunderground v.1.15,2013-08-11 11:15:00,
2013-08-11 04:20:00,57.8,54.0,30.06,NW,319,4.0,5.0,87,0.00,,,0.00,Wunderground v.1.15,2013-08-11 11:20:00,
2013-08-11 04:25:00,57.7,53.9,30.06,NW,319,2.0,5.0,87,0.00,,,0.00,Wunderground v.1.15,2013-08-11 11:25:00,
2013-08-11 04:30:00,57.6,53.8,30.06,NW,319,2.0,2.0,87,0.00,,,0.00,Wunderground v.1.15,2013-08-11 11:30:00,
2013-08-11 04:40:00,57.6,54.1,30.06,NW,319,1.0,1.0,88,0.00,,,0.00,Wunderground v.1.15,2013-08-11 11:40:00,
2013-08-11 04:45:00,57.6,54.1,30.07,NW,320,1.0,3.0,88,0.00,,,0.00,Wunderground v.1.15,2013-08-11 11:45:00,
2013-08-11 04:55:00,57.5,54.0,30.07,NW,325,1.0,2.0,88,0.00,,,0.00,Wunderground v.1.15,2013-08-11 11:55:00,
2013-08-11 05:00:00,57.7,54.5,30.06,West,277,2.0,5.0,89,0.00,,,0.00,Wunderground v.1.15,2013-08-11 12:00:00,
2013-08-11 05:05:00,58.0,54.5,30.06,WNW,300,3.0,5.0,88,0.00,,,0.00,Wunderground v.1.15,2013-08-11 12:05:00,
2013-08-11 05:10:00,57.9,54.1,30.06,NW,321,4.0,4.0,87,0.00,,,0.00,Wunderground v.1.15,2013-08-11 12:10:00,
2013-08-11 05:15:00,57.9,54.1,30.07,NW,313,3.0,4.0,87,0.00,,,0.00,Wunderground v.1.15,2013-08-11 12:15:00,
2013-08-11 05:20:00,57.8,54.0,30.07,NW,318,3.0,3.0,87,0.00,,,0.00,Wunderground v.1.15,2013-08-11 12:20:00,
2013-08-11 05:25:00,57.8,53.6,30.07,West,281,3.0,3.0,86,0.00,,,0.00,Wunderground v.1.15,2013-08-11 12:25:00,
2013-08-11 05:30:00,57.8,53.6,30.07,NW,311,2.0,2.0,86,0.00,,,0.00,Wunderground v.1.15,2013-08-11 12:30:00,
2013-08-11 05:35:00,58.0,54.2,30.07,West,279,2.0,5.0,87,0.00,,,0.00,Wunderground v.1.15,2013-08-11 12:35:00,
2013-08-11 05:40:00,58.0,53.8,30.07,West,273,3.0,3.0,86,0.00,,,0.00,Wunderground v.1.15,2013-08-11 12:40:00,
2013-08-11 05:45:00,58.3,54.1,30.07,West,265,4.0,5.0,86,0.00,,,0.00,Wunderground v.1.15,2013-08-11 12:45:00,
2013-08-11 05:50:00,58.4,54.2,30.07,NW,306,4.0,4.0,86,0.00,,,0.00,Wunderground v.1.15,2013-08-11 12:50:00,
2013-08-11 05:55:00,58.2,53.7,30.07,West,271,3.0,6.0,85,0.00,,,0.00,Wunderground v.1.15,2013-08-11 12:55:00,
2013-08-11 06:00:00,58.3,53.8,30.07,West,271,3.0,3.0,85,0.00,,,0.00,Wunderground v.1.15,2013-08-11 13:00:00,
2013-08-11 06:10:00,58.0,53.5,30.07,West,259,2.0,2.0,85,0.00,,,0.00,Wunderground v.1.15,2013-08-11 13:10:00,
2013-08-11 06:15:00,57.9,53.7,30.07,West,275,1.0,2.0,86,0.00,,,0.00,Wunderground v.1.15,2013-08-11 13:15:00,
2013-08-11 06:20:00,57.7,53.5,30.07,WNW,284,1.0,1.0,86,0.00,,,0.00,Wunderground v.1.15,2013-08-11 13:20:00,
2013-08-11 06:25:00,57.4,53.6,30.07,WNW,285,1.0,1.0,87,0.00,,,0.00,Wunderground v.1.15,2013-08-11 13:25:00,
2013-08-11 06:35:00,57.1,53.6,30.07,NW,311,1.0,2.0,88,0.00,,,0.00,Wunderground v.1.15,2013-08-11 13:35:00,
2013-08-11 06:45:00,57.1,53.6,30.07,NW,320,1.0,2.0,88,0.00,,,0.00,Wunderground v.1.15,2013-08-11 13:45:00,
2013-08-11 06:50:00,57.1,53.6,30.07,NNW,328,1.0,2.0,88,0.00,,,0.00,Wunderground v.1.15,2013-08-11 13:50:00,
2013-08-11 06:55:00,57.2,53.7,30.08,NNW,333,2.0,2.0,88,0.00,,,0.00,Wunderground v.1.15,2013-08-11 13:55:00,
2013-08-11 07:00:00,57.2,53.4,30.08,NW,311,2.0,2.0,87,0.00,,,0.00,Wunderground v.1.15,2013-08-11 14:00:00,
2013-08-11 07:05:00,57.2,53.4,30.08,NW,313,2.0,2.0,87,0.00,,,0.00,Wunderground v.1.15,2013-08-11 14:05:00,
2013-08-11 07:10:00,57.3,53.1,30.08,NW,313,2.0,2.0,86,0.00,,,0.00,Wunderground v.1.15,2013-08-11 14:10:00,
2013-08-11 07:15:00,57.4,53.2,30.08,NW,313,1.0,2.0,86,0.00,,,0.00,Wunderground v.1.15,2013-08-11 14:15:00,
2013-08-11 07:20:00,57.4,53.2,30.08,NW,316,1.0,1.0,86,0.00,,,0.00,Wunderground v.1.15,2013-08-11 14:20:00,
2013-08-11 07:25:00,57.5,53.3,30.08,NW,316,1.0,2.0,86,0.00,,,0.00,Wunderground v.1.15,2013-08-11 14:25:00,
2013-08-11 07:35:00,57.5,52.7,30.08,NW,323,3.0,6.0,84,0.00,,,0.00,Wunderground v.1.15,2013-08-11 14:35:00,
2013-08-11 07:40:00,57.5,52.7,30.08,NW,316,3.0,4.0,84,0.00,,,0.00,Wunderground v.1.15,2013-08-11 14:40:00,
2013-08-11 07:45:00,57.6,52.8,30.08,NW,309,3.0,4.0,84,0.00,,,0.00,Wunderground v.1.15,2013-08-11 14:45:00,
2013-08-11 07:50:00,57.6,52.8,30.08,NW,314,2.0,3.0,84,0.00,,,0.00,Wunderground v.1.15,2013-08-11 14:50:00,
2013-08-11 07:55:00,57.7,52.9,30.08,NW,321,2.0,3.0,84,0.00,,,0.00,Wunderground v.1.15,2013-08-11 14:55:00,
2013-08-11 08:00:00,57.7,52.9,30.08,NNW,327,2.0,2.0,84,0.00,,,0.00,Wunderground v.1.15,2013-08-11 15:00:00,
2013-08-11 08:05:00,57.7,52.9,30.08,NNW,328,2.0,2.0,84,0.00,,,0.00,Wunderground v.1.15,2013-08-11 15:05:00,
2013-08-11 08:10:00,57.6,52.8,30.08,NNW,327,1.0,1.0,84,0.00,,,0.00,Wunderground v.1.15,2013-08-11 15:10:00,
2013-08-11 08:15:00,57.6,52.8,30.08,NNW,328,1.0,1.0,84,0.00,,,0.00,Wunderground v.1.15,2013-08-11 15:15:00,
2013-08-11 08:20:00,57.7,52.9,30.08,NNW,328,1.0,1.0,84,0.00,,,0.00,Wunderground v.1.15,2013-08-11 15:20:00,
2013-08-11 08:25:00,57.8,53.0,30.07,NNW,328,1.0,1.0,84,0.00,,,0.00,Wunderground v.1.15,2013-08-11 15:25:00,
2013-08-11 08:30:00,57.9,53.1,30.07,NNW,336,1.0,2.0,84,0.00,,,0.00,Wunderground v.1.15,2013-08-11 15:30:00,
2013-08-11 08:35:00,58.1,53.6,30.08,NNW,336,1.0,2.0,85,0.00,,,0.00,Wunderground v.1.15,2013-08-11 15:35:00,
2013-08-11 08:40:00,58.2,53.4,30.08,NNW,336,1.0,2.0,84,0.00,,,0.00,Wunderground v.1.15,2013-08-11 15:40:00,
2013-08-11 08:45:00,58.3,53.5,30.08,NNW,336,1.0,2.0,84,0.00,,,0.00,Wunderground v.1.15,2013-08-11 15:45:00,
2013-08-11 08:50:00,58.4,53.3,30.08,West,266,1.0,1.0,83,0.00,,,0.00,Wunderground v.1.15,2013-08-11 15:50:00,
2013-08-11 08:55:00,58.5,53.4,30.08,WNW,289,1.0,3.0,83,0.00,,,0.00,Wunderground v.1.15,2013-08-11 15:55:00,
2013-08-11 09:00:00,58.4,53.3,30.08,West,279,2.0,3.0,83,0.00,,,0.00,Wunderground v.1.15,2013-08-11 16:00:00,
2013-08-11 09:05:00,58.4,53.3,30.08,West,260,3.0,4.0,83,0.00,,,0.00,Wunderground v.1.15,2013-08-11 16:05:00,
2013-08-11 09:10:00,58.5,53.4,30.08,WNW,284,3.0,3.0,83,0.00,,,0.00,Wunderground v.1.15,2013-08-11 16:10:00,
2013-08-11 09:25:00,58.8,53.6,30.08,WNW,284,1.0,2.0,83,0.00,,,0.00,Wunderground v.1.15,2013-08-11 16:25:00,
2013-08-11 09:30:00,58.9,53.4,30.08,WNW,302,1.0,1.0,82,0.00,,,0.00,Wunderground v.1.15,2013-08-11 16:30:00,
2013-08-11 09:40:00,59.2,53.7,30.07,NW,319,1.0,3.0,82,0.00,,,0.00,Wunderground v.1.15,2013-08-11 16:40:00,
2013-08-11 09:45:00,59.5,54.0,30.07,NNW,331,1.0,3.0,82,0.00,,,0.00,Wunderground v.1.15,2013-08-11 16:45:00,
2013-08-11 09:50:00,59.6,54.1,30.07,NNW,327,2.0,2.0,82,0.00,,,0.00,Wunderground v.1.15,2013-08-11 16:50:00,
2013-08-11 09:55:00,59.8,54.3,30.07,NW,323,1.0,2.0,82,0.00,,,0.00,Wunderground v.1.15,2013-08-11 16:55:00,
2013-08-11 10:00:00,59.9,54.4,30.07,NNW,329,2.0,2.0,82,0.00,,,0.00,Wunderground v.1.15,2013-08-11 17:00:00,
2013-08-11 10:05:00,59.8,54.3,30.07,NNW,328,2.0,2.0,82,0.00,,,0.00,Wunderground v.1.15,2013-08-11 17:05:00,
2013-08-11 10:10:00,60.0,54.5,30.07,NNW,333,2.0,2.0,82,0.00,,,0.00,Wunderground v.1.15,2013-08-11 17:10:00,
2013-08-11 10:15:00,60.2,54.3,30.07,NNW,331,2.0,3.0,81,0.00,,,0.00,Wunderground v.1.15,2013-08-11 17:15:00,
2013-08-11 10:20:00,60.3,54.8,30.07,NNW,336,2.0,2.0,82,0.00,,,0.00,Wunderground v.1.15,2013-08-11 17:20:00,
2013-08-11 10:30:00,60.5,55.0,30.07,North,355,1.0,1.0,82,0.00,,,0.00,Wunderground v.1.15,2013-08-11 17:30:00,
2013-08-11 10:40:00,60.6,54.7,30.07,ENE,63,2.0,2.0,81,0.00,,,0.00,Wunderground v.1.15,2013-08-11 17:40:00,
2013-08-11 10:45:00,60.7,54.8,30.07,NNE,17,2.0,2.0,81,0.00,,,0.00,Wunderground v.1.15,2013-08-11 17:45:00,
2013-08-11 10:50:00,60.5,54.3,30.07,NW,325,2.0,5.0,80,0.00,,,0.00,Wunderground v.1.15,2013-08-11 17:50:00,
2013-08-11 10:55:00,60.6,54.7,30.07,North,350,3.0,5.0,81,0.00,,,0.00,Wunderground v.1.15,2013-08-11 17:55:00,
2013-08-11 11:00:00,60.9,54.7,30.07,NNE,17,3.0,3.0,80,0.00,,,0.00,Wunderground v.1.15,2013-08-11 18:00:00,
2013-08-11 11:05:00,61.1,54.9,30.07,NW,318,3.0,4.0,80,0.00,,,0.00,Wunderground v.1.15,2013-08-11 18:05:00,
2013-08-11 11:10:00,61.1,54.9,30.07,NNW,329,3.0,3.0,80,0.00,,,0.00,Wunderground v.1.15,2013-08-11 18:10:00,
2013-08-11 11:15:00,61.3,54.7,30.07,North,355,2.0,3.0,79,0.00,,,0.00,Wunderground v.1.15,2013-08-11 18:15:00,
2013-08-11 11:20:00,61.4,54.8,30.07,North,360,2.0,4.0,79,0.00,,,0.00,Wunderground v.1.15,2013-08-11 18:20:00,
2013-08-11 11:25:00,61.5,55.3,30.07,NNW,338,2.0,4.0,80,0.00,,,0.00,Wunderground v.1.15,2013-08-11 18:25:00,
2013-08-11 11:30:00,61.7,55.5,30.07,North,5,2.0,2.0,80,0.00,,,0.00,Wunderground v.1.15,2013-08-11 18:30:00,
2013-08-11 11:35:00,61.6,55.0,30.07,WNW,297,2.0,3.0,79,0.00,,,0.00,Wunderground v.1.15,2013-08-11 18:35:00,
2013-08-11 11:40:00,61.4,55.2,30.07,NW,304,2.0,2.0,80,0.00,,,0.00,Wunderground v.1.15,2013-08-11 18:40:00,
2013-08-11 11:45:00,61.5,55.3,30.07,NNW,338,2.0,3.0,80,0.00,,,0.00,Wunderground v.1.15,2013-08-11 18:45:00,
2013-08-11 11:55:00,61.7,55.5,30.07,NNW,333,2.0,3.0,80,0.00,,,0.00,Wunderground v.1.15,2013-08-11 18:55:00,
2013-08-11 12:00:00,61.7,55.5,30.07,North,5,2.0,2.0,80,0.00,,,0.00,Wunderground v.1.15,2013-08-11 19:00:00,
2013-08-11 12:05:00,61.9,55.7,30.07,NE,39,2.0,4.0,80,0.00,,,0.00,Wunderground v.1.15,2013-08-11 19:05:00,
2013-08-11 12:10:00,62.0,55.8,30.07,NE,38,1.0,1.0,80,0.00,,,0.00,Wunderground v.1.15,2013-08-11 19:10:00,
2013-08-11 12:20:00,62.3,55.7,30.07,NNE,32,2.0,2.0,79,0.00,,,0.00,Wunderground v.1.15,2013-08-11 19:20:00,
2013-08-11 12:30:00,62.4,55.8,30.07,NNE,16,2.0,2.0,79,0.00,,,0.00,Wunderground v.1.15,2013-08-11 19:30:00,
2013-08-11 12:35:00,62.6,56.0,30.07,NNE,16,1.0,2.0,79,0.00,,,0.00,Wunderground v.1.15,2013-08-11 19:35:00,
2013-08-11 12:40:00,62.7,55.7,30.07,NNW,347,0.0,1.0,78,0.00,,,0.00,Wunderground v.1.15,2013-08-11 19:40:00,
2013-08-11 12:45:00,62.7,56.1,30.07,North,350,2.0,3.0,79,0.00,,,0.00,Wunderground v.1.15,2013-08-11 19:45:00,
2013-08-11 12:50:00,62.5,55.5,30.07,WNW,284,3.0,3.0,78,0.00,,,0.00,Wunderground v.1.15,2013-08-11 19:50:00,
2013-08-11 12:55:00,62.3,55.7,30.07,WNW,284,3.0,3.0,79,0.00,,,0.00,Wunderground v.1.15,2013-08-11 19:55:00,
2013-08-11 13:05:00,62.2,55.6,30.07,WNW,299,2.0,3.0,79,0.00,,,0.00,Wunderground v.1.15,2013-08-11 20:05:00,
2013-08-11 13:10:00,62.4,55.1,30.07,NW,310,2.0,2.0,77,0.00,,,0.00,Wunderground v.1.15,2013-08-11 20:10:00,
2013-08-11 13:15:00,62.7,55.7,30.07,NW,313,1.0,2.0,78,0.00,,,0.00,Wunderground v.1.15,2013-08-11 20:15:00,
2013-08-11 13:20:00,62.7,55.4,30.07,NW,306,2.0,2.0,77,0.00,,,0.00,Wunderground v.1.15,2013-08-11 20:20:00,
2013-08-11 13:25:00,62.7,55.4,30.07,NW,317,2.0,2.0,77,0.00,,,0.00,Wunderground v.1.15,2013-08-11 20:25:00,
2013-08-11 13:30:00,62.7,55.7,30.07,NNW,327,2.0,2.0,78,0.00,,,0.00,Wunderground v.1.15,2013-08-11 20:30:00,
2013-08-11 13:35:00,62.7,55.4,30.07,NNW,331,2.0,2.0,77,0.00,,,0.00,Wunderground v.1.15,2013-08-11 20:35:00,
2013-08-11 13:40:00,62.8,55.8,30.07,NNW,338,1.0,1.0,78,0.00,,,0.00,Wunderground v.1.15,2013-08-11 20:40:00,
2013-08-11 13:45:00,62.9,55.9,30.07,NNW,340,1.0,2.0,78,0.00,,,0.00,Wunderground v.1.15,2013-08-11 20:45:00,
2013-08-11 13:55:00,63.0,56.0,30.07,NNW,343,2.0,3.0,78,0.00,,,0.00,Wunderground v.1.15,2013-08-11 20:55:00,
2013-08-11 14:00:00,63.1,55.8,30.07,NW,314,2.0,2.0,77,0.00,,,0.00,Wunderground v.1.15,2013-08-11 21:00:00,
2013-08-11 14:05:00,63.1,56.1,30.07,NNW,334,1.0,2.0,78,0.00,,,0.00,Wunderground v.1.15,2013-08-11 21:05:00,
2013-08-11 14:10:00,63.5,56.2,30.07,NNW,336,1.0,1.0,77,0.00,,,0.00,Wunderground v.1.15,2013-08-11 21:10:00,
2013-08-11 14:15:00,63.7,56.4,30.07,NNW,345,1.0,2.0,77,0.00,,,0.00,Wunderground v.1.15,2013-08-11 21:15:00,
2013-08-11 14:20:00,63.6,56.3,30.07,NNW,345,1.0,1.0,77,0.00,,,0.00,Wunderground v.1.15,2013-08-11 21:20:00,
2013-08-11 14:25:00,63.8,56.4,30.07,NW,308,1.0,1.0,77,0.00,,,0.00,Wunderground v.1.15,2013-08-11 21:25:00,
2013-08-11 14:35:00,64.6,56.9,30.07,NNW,344,2.0,2.0,76,0.00,,,0.00,Wunderground v.1.15,2013-08-11 21:35:00,
2013-08-11 14:40:00,64.9,57.2,30.07,North,11,2.0,2.0,76,0.00,,,0.00,Wunderground v.1.15,2013-08-11 21:40:00,
2013-08-11 14:45:00,64.8,56.7,30.07,WNW,297,2.0,4.0,75,0.00,,,0.00,Wunderground v.1.15,2013-08-11 21:45:00,
2013-08-11 14:50:00,64.8,57.1,30.07,NNE,23,2.0,2.0,76,0.00,,,0.00,Wunderground v.1.15,2013-08-11 21:50:00,
2013-08-11 14:55:00,65.0,57.2,30.06,NNW,344,2.0,2.0,76,0.00,,,0.00,Wunderground v.1.15,2013-08-11 21:55:00,
2013-08-11 15:00:00,65.1,57.0,30.06,NNE,16,2.0,2.0,75,0.00,,,0.00,Wunderground v.1.15,2013-08-11 22:00:00,
2013-08-11 15:05:00,65.3,57.2,30.06,NE,44,2.0,3.0,75,0.00,,,0.00,Wunderground v.1.15,2013-08-11 22:05:00,
2013-08-11 15:10:00,65.2,57.4,30.06,NNE,15,2.0,4.0,76,0.00,,,0.00,Wunderground v.1.15,2013-08-11 22:10:00,
2013-08-11 15:15:00,65.3,57.5,30.06,North,360,2.0,4.0,76,0.00,,,0.00,Wunderground v.1.15,2013-08-11 22:15:00,
2013-08-11 15:20:00,65.3,57.5,30.06,NNE,26,2.0,2.0,76,0.00,,,0.00,Wunderground v.1.15,2013-08-11 22:20:00,
2013-08-11 15:25:00,65.3,57.9,30.06,NE,44,2.0,3.0,77,0.00,,,0.00,Wunderground v.1.15,2013-08-11 22:25:00,
2013-08-11 15:30:00,65.3,57.9,30.06,North,349,2.0,3.0,77,0.00,,,0.00,Wunderground v.1.15,2013-08-11 22:30:00,
2013-08-11 15:35:00,65.3,57.5,30.05,NW,313,2.0,3.0,76,0.00,,,0.00,Wunderground v.1.15,2013-08-11 22:35:00,
2013-08-11 15:40:00,65.0,57.2,30.05,NW,307,2.0,2.0,76,0.00,,,0.00,Wunderground v.1.15,2013-08-11 22:40:00,
2013-08-11 15:45:00,65.1,57.3,30.05,WNW,300,2.0,2.0,76,0.00,,,0.00,Wunderground v.1.15,2013-08-11 22:45:00,
2013-08-11 16:00:00,65.0,57.6,30.05,NNE,21,2.0,2.0,77,0.00,,,0.00,Wunderground v.1.15,2013-08-11 23:00:00,
2013-08-11 16:10:00,64.9,57.9,30.05,West,277,2.0,5.0,78,0.00,,,0.00,Wunderground v.1.15,2013-08-11 23:10:00,
2013-08-11 16:15:00,64.6,57.6,30.05,WNW,285,3.0,7.0,78,0.00,,,0.00,Wunderground v.1.15,2013-08-11 23:15:00,
2013-08-11 16:20:00,64.3,57.6,30.04,West,269,5.0,7.0,79,0.00,,,0.00,Wunderground v.1.15,2013-08-11 23:20:00,
2013-08-11 16:25:00,64.3,57.6,30.04,West,275,5.0,7.0,79,0.00,,,0.00,Wunderground v.1.15,2013-08-11 23:25:00,
2013-08-11 16:30:00,64.2,57.9,30.04,West,275,5.0,6.0,80,0.00,,,0.00,Wunderground v.1.15,2013-08-11 23:30:00,
2013-08-11 16:35:00,64.2,57.5,30.04,West,268,5.0,6.0,79,0.00,,,0.00,Wunderground v.1.15,2013-08-11 23:35:00,
2013-08-11 16:40:00,64.1,57.1,30.04,West,276,5.0,5.0,78,0.00,,,0.00,Wunderground v.1.15,2013-08-11 23:40:00,
2013-08-11 16:45:00,64.2,57.2,30.04,West,277,5.0,6.0,78,0.00,,,0.00,Wunderground v.1.15,2013-08-11 23:45:00,
2013-08-11 16:50:00,64.2,56.8,30.04,West,265,5.0,6.0,77,0.00,,,0.00,Wunderground v.1.15,2013-08-11 23:50:00,
2013-08-11 17:00:00,64.4,57.0,30.04,WNW,296,5.0,5.0,77,0.00,,,0.00,Wunderground v.1.15,2013-08-12 00:00:00,
2013-08-11 17:05:00,64.6,57.6,30.04,NNW,333,4.0,5.0,78,0.00,,,0.00,Wunderground v.1.15,2013-08-12 00:05:00,
2013-08-11 17:10:00,64.9,57.5,30.04,WNW,283,4.0,7.0,77,0.00,,,0.00,Wunderground v.1.15,2013-08-12 00:10:00,
2013-08-11 17:15:00,64.7,57.7,30.04,WNW,287,4.0,7.0,78,0.00,,,0.00,Wunderground v.1.15,2013-08-12 00:15:00,
2013-08-11 17:20:00,64.5,57.1,30.04,West,279,5.0,6.0,77,0.00,,,0.00,Wunderground v.1.15,2013-08-12 00:20:00,
2013-08-11 17:25:00,64.4,57.7,30.03,WNW,293,6.0,7.0,79,0.00,,,0.00,Wunderground v.1.15,2013-08-12 00:25:00,
2013-08-11 17:30:00,64.4,57.0,30.03,WNW,282,6.0,6.0,77,0.00,,,0.00,Wunderground v.1.15,2013-08-12 00:30:00,
2013-08-11 17:35:00,64.7,57.7,30.03,WNW,296,5.0,6.0,78,0.00,,,0.00,Wunderground v.1.15,2013-08-12 00:35:00,
2013-08-11 17:40:00,64.6,57.9,30.03,WNW,292,5.0,5.0,79,0.00,,,0.00,Wunderground v.1.15,2013-08-12 00:40:00,
2013-08-11 17:45:00,64.4,57.4,30.03,WNW,300,6.0,6.0,78,0.00,,,0.00,Wunderground v.1.15,2013-08-12 00:45:00,
2013-08-11 17:50:00,64.4,57.4,30.03,WNW,284,5.0,8.0,78,0.00,,,0.00,Wunderground v.1.15,2013-08-12 00:50:00,
2013-08-11 17:55:00,64.4,57.0,30.03,NW,307,5.0,8.0,77,0.00,,,0.00,Wunderground v.1.15,2013-08-12 00:55:00,
2013-08-11 18:00:00,64.4,57.4,30.03,West,264,5.0,7.0,78,0.00,,,0.00,Wunderground v.1.15,2013-08-12 01:00:00,
2013-08-11 18:05:00,64.4,57.7,30.03,WNW,292,5.0,8.0,79,0.00,,,0.00,Wunderground v.1.15,2013-08-12 01:05:00,
2013-08-11 18:10:00,64.2,57.2,30.02,WNW,291,6.0,6.0,78,0.00,,,0.00,Wunderground v.1.15,2013-08-12 01:10:00,
2013-08-11 18:20:00,64.4,57.4,30.02,WNW,288,3.0,5.0,78,0.00,,,0.00,Wunderground v.1.15,2013-08-12 01:20:00,
2013-08-11 18:25:00,64.3,56.9,30.02,West,269,4.0,7.0,77,0.00,,,0.00,Wunderground v.1.15,2013-08-12 01:25:00,
2013-08-11 18:30:00,64.2,57.9,30.02,WNW,286,6.0,6.0,80,0.00,,,0.00,Wunderground v.1.15,2013-08-12 01:30:00,
2013-08-11 18:35:00,64.2,57.9,30.02,WSW,257,7.0,7.0,80,0.00,,,0.00,Wunderground v.1.15,2013-08-12 01:35:00,
2013-08-11 18:40:00,64.3,58.0,30.02,West,275,6.0,6.0,80,0.00,,,0.00,Wunderground v.1.15,2013-08-12 01:40:00,
2013-08-11 18:45:00,64.3,58.0,30.02,West,273,6.0,7.0,80,0.00,,,0.00,Wunderground v.1.15,2013-08-12 01:45:00,
2013-08-11 18:50:00,64.3,58.0,30.02,West,266,6.0,6.0,80,0.00,,,0.00,Wunderground v.1.15,2013-08-12 01:50:00,
2013-08-11 18:55:00,64.3,58.3,30.02,WNW,291,7.0,7.0,81,0.00,,,0.00,Wunderground v.1.15,2013-08-12 01:55:00,
2013-08-11 19:00:00,64.4,58.1,30.02,WNW,292,6.0,6.0,80,0.00,,,0.00,Wunderground v.1.15,2013-08-12 02:00:00,
2013-08-11 19:05:00,64.3,57.6,30.02,WNW,295,6.0,6.0,79,0.00,,,0.00,Wunderground v.1.15,2013-08-12 02:05:00,
2013-08-11 19:10:00,64.2,57.2,30.02,WNW,296,5.0,7.0,78,0.00,,,0.00,Wunderground v.1.15,2013-08-12 02:10:00,
2013-08-11 19:15:00,64.3,58.0,30.02,WNW,284,6.0,8.0,80,0.00,,,0.00,Wunderground v.1.15,2013-08-12 02:15:00,
2013-08-11 19:20:00,64.2,58.2,30.02,WNW,302,6.0,6.0,81,0.00,,,0.00,Wunderground v.1.15,2013-08-12 02:20:00,
2013-08-11 19:25:00,64.1,58.1,30.02,WNW,286,7.0,8.0,81,0.00,,,0.00,Wunderground v.1.15,2013-08-12 02:25:00,
2013-08-11 19:30:00,64.0,58.4,30.02,West,273,8.0,11.0,82,0.00,,,0.00,Wunderground v.1.15,2013-08-12 02:30:00,
2013-08-11 19:35:00,63.8,57.9,30.02,WNW,289,8.0,11.0,81,0.00,,,0.00,Wunderground v.1.15,2013-08-12 02:35:00,
2013-08-11 19:40:00,63.7,57.4,30.02,West,277,8.0,8.0,80,0.00,,,0.00,Wunderground v.1.15,2013-08-12 02:40:00,
2013-08-11 19:45:00,63.5,57.6,30.02,West,271,8.0,8.0,81,0.00,,,0.00,Wunderground v.1.15,2013-08-12 02:45:00,
2013-08-11 19:50:00,63.5,57.2,30.02,WSW,257,7.0,7.0,80,0.00,,,0.00,Wunderground v.1.15,2013-08-12 02:50:00,
2013-08-11 19:55:00,63.2,57.3,30.02,West,273,6.0,7.0,81,0.00,,,0.00,Wunderground v.1.15,2013-08-12 02:55:00,
2013-08-11 20:00:00,63.0,57.1,30.02,West,269,6.0,6.0,81,0.00,,,0.00,Wunderground v.1.15,2013-08-12 03:00:00,
2013-08-11 20:05:00,63.0,57.4,30.02,West,276,6.0,6.0,82,0.00,,,0.00,Wunderground v.1.15,2013-08-12 03:05:00,
2013-08-11 20:10:00,62.9,57.3,30.02,West,259,6.0,6.0,82,0.00,,,0.00,Wunderground v.1.15,2013-08-12 03:10:00,
2013-08-11 20:15:00,62.8,57.2,30.02,West,281,7.0,9.0,82,0.00,,,0.00,Wunderground v.1.15,2013-08-12 03:15:00,
2013-08-11 20:20:00,62.7,57.1,30.02,West,259,7.0,7.0,82,0.00,,,0.00,Wunderground v.1.15,2013-08-12 03:20:00,
2013-08-11 20:25:00,62.5,57.3,30.02,West,266,7.0,8.0,83,0.00,,,0.00,Wunderground v.1.15,2013-08-12 03:25:00,
2013-08-11 20:30:00,62.5,57.3,30.02,West,266,6.0,7.0,83,0.00,,,0.00,Wunderground v.1.15,2013-08-12 03:30:00,
2013-08-11 20:35:00,62.4,57.2,30.02,WSW,256,6.0,7.0,83,0.00,,,0.00,Wunderground v.1.15,2013-08-12 03:35:00,
2013-08-11 20:40:00,62.3,57.1,30.02,West,273,6.0,6.0,83,0.00,,,0.00,Wunderground v.1.15,2013-08-12 03:40:00,
2013-08-11 20:45:00,62.3,57.1,30.02,West,261,6.0,6.0,83,0.00,,,0.00,Wunderground v.1.15,2013-08-12 03:45:00,
2013-08-11 20:50:00,62.3,57.1,30.02,WSW,239,7.0,7.0,83,0.00,,,0.00,Wunderground v.1.15,2013-08-12 03:50:00,
2013-08-11 20:55:00,62.3,57.1,30.02,WSW,251,6.0,7.0,83,0.00,,,0.00,Wunderground v.1.15,2013-08-12 03:55:00,
2013-08-11 21:00:00,62.3,57.1,30.03,WSW,257,7.0,8.0,83,0.00,,,0.00,Wunderground v.1.15,2013-08-12 04:00:00,
2013-08-11 21:05:00,62.2,57.0,30.03,SW,236,8.0,8.0,83,0.00,,,0.00,Wunderground v.1.15,2013-08-12 04:05:00,
2013-08-11 21:10:00,62.3,57.1,30.03,WSW,240,8.0,8.0,83,0.00,,,0.00,Wunderground v.1.15,2013-08-12 04:10:00,
2013-08-11 21:15:00,62.2,57.0,30.03,WSW,250,7.0,8.0,83,0.00,,,0.00,Wunderground v.1.15,2013-08-12 04:15:00,
2013-08-11 21:20:00,62.1,56.9,30.03,WSW,249,7.0,7.0,83,0.00,,,0.00,Wunderground v.1.15,2013-08-12 04:20:00,
2013-08-11 21:25:00,62.1,56.9,30.03,WSW,245,8.0,9.0,83,0.00,,,0.00,Wunderground v.1.15,2013-08-12 04:25:00,
2013-08-11 21:30:00,62.0,56.8,30.04,West,266,8.0,8.0,83,0.00,,,0.00,Wunderground v.1.15,2013-08-12 04:30:00,
2013-08-11 21:35:00,62.0,56.8,30.04,WSW,244,7.0,8.0,83,0.00,,,0.00,Wunderground v.1.15,2013-08-12 04:35:00,
2013-08-11 21:40:00,61.8,56.6,30.04,West,269,8.0,8.0,83,0.00,,,0.00,Wunderground v.1.15,2013-08-12 04:40:00,
2013-08-11 21:45:00,61.8,56.9,30.04,West,268,8.0,8.0,84,0.00,,,0.00,Wunderground v.1.15,2013-08-12 04:45:00,
2013-08-11 21:55:00,61.7,56.8,30.04,West,259,7.0,9.0,84,0.00,,,0.00,Wunderground v.1.15,2013-08-12 04:55:00,
2013-08-11 22:00:00,61.6,56.7,30.04,WSW,251,7.0,8.0,84,0.00,,,0.00,Wunderground v.1.15,2013-08-12 05:00:00,
2013-08-11 22:05:00,61.5,56.6,30.04,WSW,252,8.0,10.0,84,0.00,,,0.00,Wunderground v.1.15,2013-08-12 05:05:00,
2013-08-11 22:10:00,61.4,56.5,30.04,SW,235,8.0,8.0,84,0.00,,,0.00,Wunderground v.1.15,2013-08-12 05:10:00,
2013-08-11 22:15:00,61.5,56.6,30.04,West,267,7.0,9.0,84,0.00,,,0.00,Wunderground v.1.15,2013-08-12 05:15:00,
2013-08-11 22:20:00,61.4,56.5,30.04,West,270,6.0,6.0,84,0.00,,,0.00,Wunderground v.1.15,2013-08-12 05:20:00,
2013-08-11 22:25:00,61.3,56.1,30.05,NNW,331,4.0,6.0,83,0.00,,,0.00,Wunderground v.1.15,2013-08-12 05:25:00,
2013-08-11 22:30:00,61.1,56.2,30.05,WNW,290,3.0,3.0,84,0.00,,,0.00,Wunderground v.1.15,2013-08-12 05:30:00,
2013-08-11 22:35:00,61.0,55.8,30.04,North,11,3.0,4.0,83,0.00,,,0.00,Wunderground v.1.15,2013-08-12 05:35:00,
2013-08-11 22:40:00,60.9,56.0,30.04,North,355,2.0,2.0,84,0.00,,,0.00,Wunderground v.1.15,2013-08-12 05:40:00,
2013-08-11 22:45:00,60.7,55.8,30.04,NNE,25,2.0,3.0,84,0.00,,,0.00,Wunderground v.1.15,2013-08-12 05:45:00,
2013-08-11 22:50:00,60.5,55.6,30.04,NE,40,2.0,2.0,84,0.00,,,0.00,Wunderground v.1.15,2013-08-12 05:50:00,
2013-08-11 22:55:00,60.3,55.8,30.04,North,355,2.0,2.0,85,0.00,,,0.00,Wunderground v.1.15,2013-08-12 05:55:00,
2013-08-11 23:00:00,60.1,55.6,30.04,WNW,296,2.0,5.0,85,0.00,,,0.00,Wunderground v.1.15,2013-08-12 06:00:00,
2013-08-11 23:05:00,60.2,55.7,30.04,NNE,28,2.0,5.0,85,0.00,,,0.00,Wunderground v.1.15,2013-08-12 06:05:00,
2013-08-11 23:10:00,60.1,55.6,30.04,NNE,24,3.0,3.0,85,0.00,,,0.00,Wunderground v.1.15,2013-08-12 06:10:00,
2013-08-11 23:15:00,60.0,55.5,30.04,NNE,17,3.0,4.0,85,0.00,,,0.00,Wunderground v.1.15,2013-08-12 06:15:00,
2013-08-11 23:20:00,59.9,55.4,30.04,NNE,13,3.0,3.0,85,0.00,,,0.00,Wunderground v.1.15,2013-08-12 06:20:00,
2013-08-11 23:25:00,59.8,55.3,30.04,NNE,13,3.0,3.0,85,0.00,,,0.00,Wunderground v.1.15,2013-08-12 06:25:00,
2013-08-11 23:30:00,59.7,55.2,30.04,NNE,24,3.0,3.0,85,0.00,,,0.00,Wunderground v.1.15,2013-08-12 06:30:00,
2013-08-11 23:35:00,59.6,55.1,30.04,NNE,15,2.0,3.0,85,0.00,,,0.00,Wunderground v.1.15,2013-08-12 06:35:00,
2013-08-11 23:40:00,59.6,55.1,30.04,NNE,13,1.0,3.0,85,0.00,,,0.00,Wunderground v.1.15,2013-08-12 06:40:00,
2013-08-11 23:45:00,59.6,55.1,30.04,NNE,19,2.0,3.0,85,0.00,,,0.00,Wunderground v.1.15,2013-08-12 06:45:00,
2013-08-11 23:50:00,59.7,54.9,30.04,NNE,15,2.0,3.0,84,0.00,,,0.00,Wunderground v.1.15,2013-08-12 06:50:00,
2013-08-11 23:55:00,59.8,55.0,30.04,NNE,22,3.0,3.0,84,0.00,,,0.00,Wunderground v.1.15,2013-08-12 06:55:00,